SCP
2 2 2 2 2 1 2 2 1 1 1 1 1 1 1 1 1 1 1 1 0 0 0 0 0 0 0 0 0 0 0 0 0 0 0 1 1 1
3 3 2 2 2 2 2 2 2 1 1 1 1 1 1 1 1 1 1 1 1 0 0 0 0 0 0 0 0 0 0 0 0 0 0 0 0 0
3 2 2 2 3 2 2 2 2 2 1 1 1 1 1 1 1 1 1 1 1 0 0 0 0 0 0 0 0 0 0 0 0 0 0 0 0 0
2 2 2 3 3 3 3 3 3 2 2 1 1 1 2 2 2 2 1 1 1 0 0 0 0 0 0 0 0 0 0 0 0 0 0 0 0 0
2 2 3 3 3 3 3 3 3 2 2 2 1 2 2 2 2 2 1 1 1 1 0 0 0 0 0 0 0 0 0 0 0 0 0 0 0 0
2 2 3 3 3 2 2 2 2 2 2 2 2 2 2 2 2 2 1 1 1 1 1 1 1 0 0 0 0 0 0 0 0 0 0 0 0 0
2 3 3 3 3 2 1 2 2 2 2 2 2 2 2 3 3 2 2 2 2 2 2 1 1 1 1 1 0 0 0 0 0 0 0 0 0 0
2 2 3 3 2 1 1 1 1 2 2 2 2 2 3 3 3 3 3 3 2 3 3 2 2 2 2 1 1 0 0 0 0 0 0 0 0 0
2 2 2 2 1 1 1 1 1 1 1 2 2 2 2 3 4 4 4 3 3 3 3 3 2 2 2 2 1 0 0 0 0 0 0 0 0 0
1 1 1 1 1 2 2 2 2 2 1 1 2 2 2 2 3 4 4 3 3 3 3 3 2 2 2 2 1 0 0 0 0 0 0 0 0 0
2 2 2 2 2 2 2 3 3 2 2 1 1 1 1 1 2 3 3 3 3 3 3 3 2 2 2 2 2 1 0 0 0 0 0 0 0 0
2 2 2 1 1 1 2 3 2 2 2 2 2 2 1 1 1 2 3 3 3 3 3 3 3 3 3 2 2 2 1 0 0 0 0 0 0 0
3 2 2 1 1 1 1 1 1 1 1 2 3 3 3 2 2 2 3 3 3 3 3 3 3 3 3 2 2 2 1 1 0 0 0 0 0 0
3 2 1 1 0 0 0 0 0 1 1 2 3 3 4 3 3 3 3 3 3 2 3 3 3 3 3 2 2 2 1 1 1 1 1 0 0 0
2 2 1 0 0 0 0 0 0 1 1 2 2 3 3 3 2 2 2 3 2 2 2 2 3 2 2 2 1 1 1 1 1 1 1 1 1 1
1 1 1 0 0 1 1 1 1 1 2 2 2 2 2 1 1 1 2 2 2 2 2 2 2 2 1 1 1 1 1 1 1 1 1 1 1 0
1 1 1 1 1 1 1 1 2 2 1 1 1 1 1 1 1 1 1 2 2 2 2 2 2 1 1 1 1 1 1 1 1 1 1 0 0 0
1 1 1 1 1 1 2 2 2 1 1 1 1 1 1 1 1 2 2 2 2 2 1 1 1 1 1 1 1 1 1 1 1 1 1 1 0 0
1 1 1 1 1 1 2 2 2 1 1 1 1 1 1 2 2 2 2 2 2 1 1 1 1 1 0 0 0 0 0 0 1 1 1 1 0 0
1 1 1 1 1 1 1 2 2 2 2 1 1 2 2 2 2 1 1 1 1 1 0 0 0 0 0 0 0 0 0 0 0 0 0 0 0 0
0 1 1 1 1 1 1 1 2 2 2 2 2 2 1 1 1 1 1 1 0 0 0 0 0 0 0 0 0 0 0 0 0 0 0 0 0 0
0 0 0 0 0 0 1 1 1 1 1 1 1 1 1 1 1 1 0 0 0 0 0 0 0 0 0 0 0 0 0 0 0 0 0 0 0 0
0 0 0 0 0 0 0 0 0 1 1 1 1 1 1 1 1 1 1 0 0 0 0 0 0 0 0 0 0 0 0 0 0 0 0 0 0 0
Wind_Speed
7 7 6 5 5 4 4 4 4 5 4 4 4 4 3 3 3 5 6 8 10 9 10 10 10 10 10 10 10 10 10 10 10 10 10 11 11 12
5 6 6 5 5 5 5 5 5 5 5 3 3 2 3 4 4 6 6 7 9 9 9 9 10 10 10 10 11 11 11 11 11 11 11 11 11 11
7 7 7 7 5 5 5 5 5 5 6 5 3 2 3 5 3 5 6 7 7 10 10 9 9 10 10 10 11 11 11 11 11 11 12 12 12 12
7 7 8 6 7 6 5 6 5 5 6 6 4 4 5 5 5 6 6 6 5 8 10 9 9 9 9 10 10 10 10 11 11 11 12 12 13 13
7 8 8 7 7 6 6 6 5 5 5 6 6 3 4 4 4 6 6 4 6 5 9 10 9 9 9 9 9 10 10 10 10 11 11 12 12 13
7 7 7 7 7 7 6 6 6 6 5 6 6 4 4 3 4 5 5 5 6 5 4 5 8 10 10 9 9 9 10 10 10 11 11 11 11 12
6 6 6 4 4 4 5 4 5 5 5 5 5 5 4 3 4 5 5 4 4 5 4 4 5 5 6 8 8 8 8 8 9 9 9 9 9 9
5 4 4 4 3 4 4 3 4 5 6 5 5 5 5 5 4 5 5 5 5 2 3 5 4 4 3 3 2 4 5 6 6 7 7 7 8 8
2 3 3 2 3 3 3 3 3 3 4 6 6 5 5 4 5 6 5 5 5 4 3 5 4 4 4 2 2 3 3 4 4 4 5 6 6 7
1 1 2 1 1 1 2 2 2 1 2 4 4 5 5 5 5 5 5 5 5 4 4 5 5 4 4 2 2 3 2 2 3 3 4 5 6 6
1 0 1 0 2 1 2 2 1 1 1 2 1 2 3 4 4 4 4 5 5 4 2 4 4 4 4 3 1 4 3 2 1 2 3 4 6 7
1 1 3 3 4 2 1 1 1 2 2 1 1 2 3 2 2 4 5 5 4 4 2 3 3 3 3 2 1 1 1 2 2 2 2 3 5 5
2 2 3 5 5 5 3 2 2 2 2 2 2 2 2 2 2 1 2 3 3 3 3 2 3 3 3 3 2 2 2 2 2 2 3 3 3 4
3 3 5 7 8 7 5 5 4 2 1 1 2 2 2 2 2 2 2 2 2 2 4 4 3 4 4 4 3 2 2 3 4 4 4 2 3 4
5 7 7 7 6 6 5 4 3 2 2 2 2 2 2 2 2 2 1 1 1 2 3 3 3 4 3 4 4 4 4 3 3 3 4 4 4 3
5 7 7 6 5 5 4 4 4 4 3 3 3 3 3 3 3 3 2 2 1 1 2 2 3 4 3 3 4 4 4 4 3 4 5 5 4 4
5 4 4 4 4 4 4 4 4 4 4 3 3 4 4 4 4 3 3 3 3 3 3 2 1 2 3 4 4 4 4 4 4 4 5 5 4 4
5 5 5 4 4 4 4 4 4 4 4 4 3 3 3 3 3 3 3 3 3 4 4 4 3 3 2 0 3 5 5 5 5 5 6 6 6 4
6 6 5 5 4 4 4 4 4 4 3 3 3 3 3 4 4 4 4 4 4 4 4 4 5 5 5 4 1 2 6 6 6 6 6 6 7 5
6 5 5 5 4 4 4 4 3 4 3 4 4 4 4 4 4 4 4 5 4 4 4 4 5 6 6 6 6 3 2 6 6 7 7 7 6 4
5 5 5 5 5 4 4 4 4 4 5 4 4 4 4 4 4 4 4 3 4 4 5 5 4 5 6 5 5 4 3 1 3 6 7 7 7 6
6 5 5 4 4 4 3 3 3 4 4 4 4 4 4 4 4 5 5 4 4 5 6 5 4 5 5 6 7 6 5 4 3 5 6 5 6 7
5 5 4 4 4 4 4 4 5 4 4 5 4 5 5 5 5 5 5 5 5 6 6 6 5 5 6 6 7 7 7 7 6 5 4 4 7 9
Wind_Direction
234 228 238 244 239 245 248 247 259 271 264 230 232 212 229 235 186 223 233 193 203 214 221 225 228 230 231 231 231 232 233 233 232 232 235 239 241 243
236 240 240 241 243 241 241 243 248 262 275 273 253 229 234 248 202 239 240 189 199 212 220 226 229 231 232 232 232 232 232 233 234 234 236 238 241 243
234 232 236 245 244 241 238 238 238 244 257 266 261 246 238 260 243 246 241 231 212 201 212 221 226 229 232 233 234 234 234 235 237 238 239 240 241 242
235 238 241 238 236 242 243 244 242 239 250 264 261 243 237 242 243 248 249 239 244 188 198 213 223 228 231 233 233 235 236 238 240 242 243 244 244 244
236 240 245 244 241 238 239 243 240 235 237 252 256 248 245 240 243 244 248 255 259 208 192 203 213 223 229 232 234 237 239 241 244 245 246 247 247 248
237 242 248 246 244 246 241 242 245 248 242 247 252 248 246 239 248 253 249 235 250 256 233 217 207 213 222 227 232 236 238 241 243 245 247 249 250 250
236 240 246 249 261 258 263 254 250 249 245 241 248 254 254 249 252 257 262 266 256 256 260 254 231 227 217 219 228 234 236 239 241 244 246 248 249 250
234 239 235 226 225 227 251 272 280 266 266 262 254 254 259 263 272 275 278 277 273 271 274 275 268 263 258 253 184 194 217 229 236 242 246 249 250 250
241 245 249 227 225 232 202 202 234 264 266 270 273 275 276 277 277 274 274 282 287 297 291 279 277 270 265 267 149 175 206 224 237 246 255 261 261 259
229 242 265 270 283 289 241 233 247 272 258 245 269 285 292 300 285 278 282 272 265 270 277 272 279 280 280 281 153 169 191 229 249 265 272 272 270 264
178 64 300 258 39 6 255 240 261 280 64 90 32 319 344 341 315 283 273 272 275 273 269 267 280 287 278 263 186 160 181 208 230 273 286 294 291 270
128 93 54 39 39 21 265 244 262 281 300 298 244 262 273 280 271 278 281 274 278 283 325 283 276 288 280 273 296 278 208 194 207 231 267 299 311 294
118 93 65 67 60 46 27 26 350 309 307 313 316 318 326 338 339 321 308 298 292 292 334 309 292 291 278 288 302 329 331 321 291 259 228 244 274 289
101 87 77 80 74 60 54 38 19 355 353 359 3 7 359 355 6 20 28 15 349 319 330 323 304 306 297 296 302 316 322 321 319 317 317 266 245 236
85 79 80 89 93 78 60 42 36 37 38 38 29 20 13 6 1 21 41 28 319 325 343 338 319 309 299 295 297 305 306 308 305 309 314 313 311 300
109 105 100 87 80 72 71 63 52 42 35 42 35 27 19 19 18 2 347 336 337 23 46 13 344 316 299 297 295 298 305 309 322 325 319 309 304 300
112 98 84 81 75 69 64 58 52 54 49 36 29 25 23 22 19 7 355 355 356 352 359 1 332 306 303 305 305 314 317 318 325 333 310 305 307 310
101 89 79 71 64 58 58 57 52 44 38 35 32 22 15 16 15 12 9 7 3 360 356 349 338 317 281 65 348 323 324 328 328 320 303 303 305 311
90 85 80 72 65 58 52 50 48 46 29 28 27 20 13 13 13 13 11 8 2 0 1 358 355 343 331 331 11 1 335 328 322 320 317 313 310 316
78 80 77 71 64 56 50 44 40 40 35 28 24 17 13 10 9 9 14 3 352 350 349 359 3 350 335 324 319 322 328 324 325 320 318 312 307 301
76 72 69 67 62 55 48 41 37 34 27 19 22 12 6 4 5 2 6 0 334 342 342 353 358 299 289 294 299 320 349 335 306 306 311 307 308 305
83 79 74 69 64 56 48 39 39 39 29 22 19 8 5 0 359 356 352 346 345 345 337 339 338 318 314 315 315 317 323 324 278 244 259 281 309 314
77 74 69 65 59 51 44 38 35 33 26 16 11 4 3 360 352 350 350 347 348 346 337 335 335 325 321 317 318 322 326 323 321 314 298 230 232 248